"Pseudo-MPEC" for C0E5E35

Created 2022 Nov 27 13:22:04 UT using Find_Orb

Click here for an explanation of pseudo-MPECs

 
 Astrometry: 
     C0E5E35* C2022 11 23V3g/!*G]v$XJxk(5+,=#Rj(G1CLwlS5ZAstrometry3x5=FLm$+=V00
     C0E5E35  C2022 11 23v8\,/99SA:dga@3o/m(.\F./m2:ehjeZKi@C;Y-ZI3d[r=ZLnl@YV00
     C0E5E35  C2022 11 23ZeD;kI^1B''!iaU8;h0%#0Qredacted;A11G%WB^l-\aR_E''E\pV00
     C0E5E35 mC2022 11 23,7bGZr'](XXmjr!H0m/FTa,T%g[JJQ0;9Xue9YGqk;;qg=sRd(xsV00
     C0E5E35 mC2022 11 23D^MILbNP9^k,pgK/r[Egv=UmjaXM9+qRXt$t.gaysW@xAtp@^x7mV00
     C0E5E35 mC2022 11 23F'TXTGc%yuTWoVe\=?/O_-J4#LT;$EbJLp([E:=@nu5K:qBYZKsgV00
     C0E5E35 mC2022 11 23u-EG;``I*f?g!]2USdPBijn2$N7w3*a4y!n9Jy%Df[[Rwj+;@(+eV00
     C0E5E35 mC2022 11 26vqCJ.@fu$'0#)$-Wu+wVAP-15I,=TK9%n34^/lfsoIclickQe0/:V00
     C0E5E35 mC2022 11 26`K]6XnL[CiK7n?U\-mEyYH\Igm2(csSFceniGI36tJ+nYAULf/`*V00
     C0E5E35 mC2022 11 26Wv-EC@',94Ry!lJYkx]PFpqv]e\gB3NAVnca6ojJdDtC5sZesP\OV00
     C0E5E35 mC2022 11 26Ls:c:here7viX,]5IE%?coC'nJ]k*Id4_:`Y.#MESX`m/yr(BLCjV00
     C0E5E35 mC2022 11 27DGM5+vS?6GYIV]v!6m3Pm:FSvO_?F,l5kCi036i6F2q%5GLpaL#^V00
     C0E5E35 mC2022 11 27hR`Mqa3=v$:?hMV2cV8PX//fornW6rbA0QsKXD2explanationF;V00
     C0E5E35 mC2022 11 27b$V(m)8%Gn=wM'`u8v90_4Aj-F+2HFtMVt:nyacp86QxeiOXhluXV00
     C0E5E35 mC2022 11 27SuZ^-]^'do^^/R7J;ab+9:J(C(\1t1i',$?9;$u%sYc\eT,[;Hf.V00

Station data:
(V00) Kitt Peak-Bok  (N31.963125 W111.600190)  US/Arizona.  Observers T. A.
   Pruyne, B. M. Africano, E. J. Christensen, G. A. Farneth, D. C. Fuls, A.
   R. Gibbs, A. D. Grauer, H. Gröller, J. A. Johnson, R. A. Kowalski, S. M.
   Larson, G. J. Leonard, D. Rankin, R. L. Seaman, F. C. Shelly, K. W.
   Wierzchoś. 2.25-m reflector + CCD.

Orbital elements:  C0E5E35
   Perihelion 2022 Oct 10.05232 +/- 0.0772 TT =  1:15:20 (JD 2459862.55232)
Epoch 2022 Nov 27.0 TT = JDT 2459910.5   Earth MOID: 0.1072   AutoNEOCP
M  34.48595581 +/- 0.06             (J2000 ecliptic)
n   0.71924131 +/- 0.00235          Peri.  310.71209 +/- 0.046
a   1.23372860 +/- 0.00269          Node    70.71139 +/- 0.0055
e   0.1328109 +/- 0.0013            Incl.    7.62962 +/- 0.07
P   1.37/500.52d           H 26.6   G  0.15   U  8.7
q 1.06987589 +/- 0.000743    Q 1.39758130 +/- 0.00465
From 15 observations 2022 Nov. 23-27; mean residual 0".29
Residuals in arcseconds: 
221123 V00  .05+  .39+    221123 V00  .16+  .33-    221126 V00  .13+  .14-    
221123 V00  .13+  .30-    221123 V00  .06+  .40-    221127 V00  .19+  .28-    
221123 V00  .47-  .59+    221126 V00  .10-  .21-    221127 V00  .12+  .09+    
221123 V00  .22-  .14+    221126 V00  .03+  .10+    221127 V00  .52-  .56+    
221123 V00  .26+  .14-    221126 V00  .04+  .38+    221127 V00  .13+  .46-    

Ephemerides (geocentric):
Date (UTC) HH   RA             Dec           delta  r     elong  mag " sig PA
---- --------  ------------   ------------  ------ ------ -----  --- --------
2022 11 27 13  05 08 21.384   +17 41 28.14  .12407 1.1077 166.3 23.0 .312  58
2022 11 27 14  05 08 16.880   +17 44 05.12  .12411 1.1078 166.3 23.0 .307  58
2022 11 27 15  05 08 12.373   +17 46 42.00  .12415 1.1079 166.4 23.0 .302  59
2022 11 27 16  05 08 07.862   +17 49 18.80  .12419 1.1079 166.5 23.0 .296  59
2022 11 27 17  05 08 03.348   +17 51 55.52  .12423 1.1080 166.6 23.0 .291  59
2022 11 27 18  05 07 58.832   +17 54 32.15  .12427 1.1080 166.6 23.0 .286  60
2022 11 27 19  05 07 54.312   +17 57 08.69  .12431 1.1081 166.7 23.0 .280  60
2022 11 27 20  05 07 49.789   +17 59 45.14  .12435 1.1082 166.8 23.0 .274  60
2022 11 27 21  05 07 45.262   +18 02 21.51  .12439 1.1082 166.8 23.0 .269  61
2022 11 27 22  05 07 40.733   +18 04 57.79  .12443 1.1083 166.9 23.0 .263  61
2022 11 27 23  05 07 36.201   +18 07 33.97  .12447 1.1083 167.0 23.0 .257  62
2022 11 28 00  05 07 31.666   +18 10 10.07  .12451 1.1084 167.0 23.0 .252  62
2022 11 28 01  05 07 27.127   +18 12 46.08  .12455 1.1085 167.1 23.0 .246  63
2022 11 28 02  05 07 22.586   +18 15 21.99  .12459 1.1085 167.2 23.0 .240  63
2022 11 28 03  05 07 18.042   +18 17 57.82  .12463 1.1086 167.2 23.0 .234  64
2022 11 28 04  05 07 13.495   +18 20 33.55  .12467 1.1087 167.3 23.0 .228  65
2022 11 28 05  05 07 08.945   +18 23 09.19  .12471 1.1087 167.4 23.0 .222  65
2022 11 28 06  05 07 04.392   +18 25 44.74  .12475 1.1088 167.4 23.0 .216  66
2022 11 28 07  05 06 59.837   +18 28 20.19  .12479 1.1088 167.5 23.0 .210  67
2022 11 28 08  05 06 55.278   +18 30 55.54  .12483 1.1089 167.6 23.0 .205  68
2022 11 28 09  05 06 50.717   +18 33 30.81  .12487 1.1090 167.6 23.0 .199  69
2022 11 28 10  05 06 46.153   +18 36 05.97  .12492 1.1090 167.7 23.0 .193  70
2022 11 28 11  05 06 41.587   +18 38 41.04  .12496 1.1091 167.8 23.0 .187  71
2022 11 28 12  05 06 37.018   +18 41 16.01  .12500 1.1091 167.9 23.0 .181  72
2022 11 28 13  05 06 32.446   +18 43 50.89  .12504 1.1092 167.9 23.0 .175  74
2022 11 28 14  05 06 27.871   +18 46 25.67  .12509 1.1093 168.0 23.0 .170  75
2022 11 28 15  05 06 23.294   +18 49 00.34  .12513 1.1093 168.1 23.0 .164  77
2022 11 28 16  05 06 18.715   +18 51 34.92  .12517 1.1094 168.1 23.0 .159  79
2022 11 28 17  05 06 14.132   +18 54 09.40  .12522 1.1095 168.2 23.0 .154  81
2022 11 28 18  05 06 09.548   +18 56 43.78  .12526 1.1095 168.3 23.0 .148  83
2022 11 28 19  05 06 04.961   +18 59 18.06  .12530 1.1096 168.3 23.0 .144  85
2022 11 28 20  05 06 00.371   +19 01 52.24  .12535 1.1096 168.4 23.0 .139  88
2022 11 28 21  05 05 55.779   +19 04 26.31  .12539 1.1097 168.5 23.0 .135  91
2022 11 28 22  05 05 51.185   +19 07 00.29  .12543 1.1098 168.5 23.0 .131  94
2022 11 28 23  05 05 46.588   +19 09 34.16  .12548 1.1098 168.6 23.0 .127  97
2022 11 29 00  05 05 41.989   +19 12 07.92  .12552 1.1099 168.7 23.0 .124 100
2022 11 29 01  05 05 37.388   +19 14 41.58  .12557 1.1100 168.7 23.0 .121 104
2022 11 29 02  05 05 32.784   +19 17 15.14  .12561 1.1100 168.8 23.0 .119 108
2022 11 29 03  05 05 28.178   +19 19 48.59  .12566 1.1101 168.9 23.0 .117 112
2022 11 29 04  05 05 23.570   +19 22 21.94  .12570 1.1101 168.9 23.0 .117 116
2022 11 29 05  05 05 18.960   +19 24 55.18  .12575 1.1102 169.0 23.0 .116 120
2022 11 29 06  05 05 14.348   +19 27 28.31  .12580 1.1103 169.1 23.0 .117 124
2022 11 29 07  05 05 09.733   +19 30 01.34  .12584 1.1103 169.1 23.0 .118 128
2022 11 29 08  05 05 05.117   +19 32 34.25  .12589 1.1104 169.2 23.0 .120 132
2022 11 29 09  05 05 00.498   +19 35 07.06  .12593 1.1105 169.3 23.0 .122 137
2022 11 29 10  05 04 55.877   +19 37 39.76  .12598 1.1105 169.3 23.0 .125 140
2022 11 29 11  05 04 51.254   +19 40 12.35  .12603 1.1106 169.4 23.0 .129 144
2022 11 29 12  05 04 46.630   +19 42 44.83  .12607 1.1106 169.5 23.0 .133 148